Simultaneous Nadir Overpasses (SNOs) Predictions

Prediction of SNOs between NPP and TERRA Satellite Orbit:

Table of predicted SNOs for the next 14.0 days since TLE Epoch: 5/3/2012
Index Date (NPP) Time (NPP) Lat,Lon (NPP) SZA (NPP ) Date (TERRA) Time (TERRA) Lat,Lon (TERRA) SZA (TERRA ) Distance(km) Time Diff (sec)
1 05/04/2012 19:12:04 -68.36, 70.31 128.01 05/04/2012 19:13:14 -68.33, 70.30 128.03 2.69 70
2 05/04/2012 20:02:48 68.22,-122.21 51.84 05/04/2012 20:02:41 68.22,-122.19 51.85 0.83 7
3 05/04/2012 20:53:26 -67.94, 45.47 128.45 05/04/2012 20:52:13 -68.00, 45.19 128.38 13.77 73
4 05/07/2012 11:28:56 -68.29,-173.83 128.82 05/07/2012 11:29:44 -68.29,-173.87 128.83 1.76 48
5 05/07/2012 12:19:40 68.15, -6.35 51.03 05/07/2012 12:19:11 68.17, -6.37 51.05 2.01 29
6 05/07/2012 13:10:04 -67.11, 162.23 130.02 05/07/2012 13:08:57 -67.17, 160.13 129.95 90.74 67
7 05/10/2012 02:55:23 69.21, 133.39 51.41 05/10/2012 02:56:30 69.11, 135.39 51.29 80.10 67
8 05/10/2012 03:45:49 -68.28, -58.04 129.55 05/10/2012 03:46:13 -68.28, -58.00 129.55 1.95 24
9 05/10/2012 04:36:32 68.09, 109.50 50.26 05/10/2012 04:35:41 68.11, 109.44 50.27 3.08 51
10 05/12/2012 19:12:00 68.40,-109.75 49.91 05/12/2012 19:13:11 68.36,-109.65 49.87 5.91 71
11 05/12/2012 20:02:40 -68.22, 57.81 130.29 05/12/2012 20:02:42 -68.21, 57.80 130.30 0.97 2
12 05/12/2012 20:53:23 68.04,-134.65 49.52 05/12/2012 20:52:10 68.03,-134.77 49.52 4.88 73
13 05/15/2012 11:28:51 68.30, 6.17
